"read_dt","SO2 (ppb)","flags","PMT voltage (V)","lamp voltage (V)","lamp intensity (Hz)","internal temp (C)","react chamber temp (C)","sample flow (l/min)","pres (mmHg)","SO2 bkg (ppb)","SO2 coefficient"
2018-08-14 00:00:00,2.749E-01,4C000000*,-702.3,958.532,89,35.6,45.1,0.409,736.0,2.1,1.050*
2018-08-14 00:01:00,1.572E-01,4C000000*,-702.3,956.511,89,35.6,44.9,0.410,736.3,2.1,1.050*
2018-08-14 00:02:00,2.318E-01,4C000000*,-702.6,956.915,90,35.7,45.2,0.409,736.0,2.1,1.050*
2018-08-14 00:03:00,2.462E-01,4C000000*,-702.6,956.511,89,35.6,44.9,0.409,736.0,2.1,1.050*
2018-08-14 00:04:00,1.691E-01,4C000000*,-702.6,958.532,90,35.6,44.9,0.409,736.0,2.1,1.050*
2018-08-14 00:05:00,2.160E-01,4C000000*,-702.3,957.724,90,35.6,45.3,0.409,736.0,2.1,1.050*
2018-08-14 00:06:00,9.088E-02,4C000000*,-702.3,956.511,90,35.6,45.0,0.409,736.0,2.1,1.050*
2018-08-14 00:07:00,2.148E-01,4C000000*,-702.3,956.915,90,35.6,45.1,0.409,736.0,2.1,1.050*
2018-08-14 00:08:00,1.184E-01,4C000000*,-702.3,958.128,90,35.6,45.1,0.409,736.0,2.1,1.050*
2018-08-14 00:09:00,8.756E-02,4C000000*,-702.3,957.320,88,35.6,44.9,0.409,735.7,2.1,1.050*
2018-08-14 00:10:00,1.231E-01,4C000000*,-702.3,957.724,90,35.6,45.2,0.410,736.0,2.1,1.050*
2018-08-14 00:11:00,1.877E-01,4C000000*,-702.6,956.915,90,35.6,45.2,0.409,736.0,2.1,1.050*
2018-08-14 00:12:00,8.120E-02,4C000000*,-702.3,958.532,90,35.6,45.0,0.409,736.0,2.1,1.050*
2018-08-14 00:13:00,2.498E-01,4C000000*,-702.3,956.511,89,35.7,45.2,0.409,736.0,2.1,1.050*
2018-08-14 00:14:00,1.251E-01,4C000000*,-702.3,956.915,90,35.6,44.9,0.409,736.0,2.1,1.050*
2018-08-14 00:15:00,2.134E-01,4C000000*,-702.3,958.937,89,35.7,45.2,0.410,736.0,2.1,1.050*
2018-08-14 00:16:00,2.516E-01,4C000000*,-702.3,958.937,90,35.7,45.0,0.409,735.7,2.1,1.050*
2018-08-14 00:17:00,1.573E-01,4C000000*,-702.3,958.532,90,35.6,45.3,0.409,736.0,2.1,1.050*
2018-08-14 00:18:00,1.808E-01,4C000000*,-702.3,958.532,90,35.7,45.1,0.410,735.7,2.1,1.050*
2018-08-14 00:19:00,1.465E-01,4C000000*,-702.3,958.532,90,35.7,44.9,0.409,736.0,2.1,1.050*
2018-08-14 00:20:00,2.266E-01,4C000000*,-702.6,958.532,91,35.7,45.2,0.409,736.0,2.1,1.050*
2018-08-14 00:21:00,1.565E-01,4C000000*,-702.3,956.511,90,35.7,45.0,0.409,736.0,2.1,1.050*
2018-08-14 00:22:00,2.553E-01,4C000000*,-702.3,957.320,90,35.7,44.9,0.409,736.0,2.1,1.050*
2018-08-14 00:23:00,1.320E-01,4C000000*,-702.6,956.511,90,35.7,45.2,0.409,735.7,2.1,1.050*
2018-08-14 00:24:00,1.342E-01,4C000000*,-702.6,958.128,88,35.6,45.1,0.409,736.0,2.1,1.050*
2018-08-14 00:25:00,1.437E-01,4C000000*,-702.3,957.320,90,35.7,45.0,0.409,736.0,2.1,1.050*
2018-08-14 00:26:00,1.469E-01,4C000000*,-702.6,959.341,90,35.7,45.1,0.409,735.7,2.1,1.050*
2018-08-14 00:27:00,2.392E-01,4C000000*,-702.3,958.128,90,35.7,44.9,0.409,736.0,2.1,1.050*
2018-08-14 00:28:00,2.086E-01,4C000000*,-702.6,956.511,90,35.7,45.1,0.410,735.7,2.1,1.050*
2018-08-14 00:29:00,1.698E-01,4C000000*,-702.3,956.915,91,35.7,45.0,0.409,736.0,2.1,1.050*
2018-08-14 00:30:00,1.330E-01,4C000000*,-702.3,956.915,90,35.7,45.2,0.410,735.7,2.1,1.050*
2018-08-14 00:31:00,1.327E-01,4C000000*,-702.6,957.320,90,35.7,45.2,0.409,735.7,2.1,1.050*
2018-08-14 00:32:00,8.543E-02,4C000000*,-702.3,956.915,90,35.7,44.9,0.409,736.0,2.1,1.050*
2018-08-14 00:33:00,2.064E-01,4C000000*,-702.6,957.320,90,35.7,45.2,0.409,735.7,2.1,1.050*
2018-08-14 00:34:00,1.745E-01,4C000000*,-702.3,957.724,89,35.7,45.0,0.409,735.7,2.1,1.050*
2018-08-14 00:35:00,1.974E-01,4C000000*,-702.6,957.724,90,35.7,44.9,0.409,735.7,2.1,1.050*
2018-08-14 00:36:00,1.908E-01,4C000000*,-702.6,957.320,90,35.7,45.3,0.409,735.7,2.1,1.050*
2018-08-14 00:37:00,1.436E-01,4C000000*,-702.3,957.724,90,35.7,45.1,0.409,735.7,2.1,1.050*
2018-08-14 00:38:00,1.312E-01,4C000000*,-702.6,958.532,90,35.8,45.1,0.409,735.7,2.1,1.050*
2018-08-14 00:39:00,1.124E-01,4C000000*,-702.3,958.937,90,35.7,45.1,0.409,735.7,2.1,1.050*
2018-08-14 00:40:00,5.832E-02,4C000000*,-702.6,957.320,90,35.7,45.0,0.409,735.7,2.1,1.050*
2018-08-14 00:41:00,-3.372E-03,4C000000*,-702.3,958.128,89,35.8,45.2,0.409,735.7,2.1,1.050*
2018-08-14 00:42:00,2.145E-01,4C000000*,-702.3,957.724,91,35.7,44.9,0.409,735.7,2.1,1.050*
2018-08-14 00:43:00,1.729E-01,4C000000*,-702.6,958.128,90,35.7,45.3,0.409,735.7,2.1,1.050*
2018-08-14 00:44:00,1.912E-01,4C000000*,-702.3,958.937,90,35.7,45.1,0.409,735.4,2.1,1.050*
2018-08-14 00:45:00,1.345E-01,4C000000*,-702.3,957.724,91,35.7,45.1,0.409,735.7,2.1,1.050*
2018-08-14 00:46:00,1.137E-01,4C000000*,-702.3,956.107,90,35.7,45.1,0.409,735.4,2.1,1.050*
2018-08-14 00:47:00,1.597E-01,4C000000*,-702.6,957.724,90,35.7,44.9,0.409,735.4,2.1,1.050*
2018-08-14 00:48:00,1.766E-01,4C000000*,-702.6,958.128,89,35.7,45.2,0.409,735.7,2.1,1.050*
2018-08-14 00:49:00,1.227E-01,4C000000*,-702.3,957.724,90,35.8,45.2,0.409,735.1,2.1,1.050*
2018-08-14 00:50:00,2.296E-01,4C000000*,-702.3,958.532,91,35.7,44.8,0.409,734.8,2.1,1.050*
2018-08-14 00:51:00,1.038E-01,4C000000*,-702.3,957.320,89,35.8,45.3,0.409,735.1,2.1,1.050*
2018-08-14 00:52:00,1.356E-01,4C000000*,-702.3,957.320,89,35.7,45.0,0.409,735.1,2.1,1.050*
2018-08-14 00:53:00,1.504E-01,4C000000*,-702.3,957.320,89,35.8,44.9,0.409,735.1,2.1,1.050*
2018-08-14 00:54:00,2.434E-01,4C000000*,-701.9,957.320,90,35.7,45.2,0.409,735.1,2.1,1.050*
2018-08-14 00:55:00,1.697E-01,4C000000*,-702.6,956.915,90,35.7,45.0,0.409,735.1,2.1,1.050*
2018-08-14 00:56:00,2.295E-01,4C000000*,-702.6,958.937,90,35.8,45.3,0.409,734.8,2.1,1.050*
2018-08-14 00:57:00,3.495E-01,4C000000*,-702.3,957.724,91,35.7,45.1,0.409,734.8,2.1,1.050*
2018-08-14 00:58:00,1.244E-01,4C000000*,-702.3,957.724,90,35.8,45.1,0.409,735.1,2.1,1.050*
2018-08-14 00:59:00,1.543E-01,4C000000*,-702.6,958.532,90,35.8,45.1,0.409,734.8,2.1,1.050*
2018-08-14 01:00:00,2.168E-01,4C000000*,-702.6,958.937,91,35.7,45.0,0.409,735.1,2.1,1.050*
2018-08-14 01:01:00,1.033E-01,4C000000*,-702.6,957.724,89,35.8,45.2,0.409,734.8,2.1,1.050*
2018-08-14 01:02:00,1.542E-01,4C000000*,-702.6,958.128,91,35.8,44.9,0.409,734.8,2.1,1.050*
2018-08-14 01:03:00,8.281E-02,4C000000*,-702.3,958.128,90,35.7,45.3,0.409,735.1,2.1,1.050*
2018-08-14 01:04:00,1.221E-01,4C000000*,-702.6,957.320,91,35.8,45.1,0.409,734.8,2.1,1.050*
2018-08-14 01:05:00,1.384E-01,4C000000*,-702.3,956.915,89,35.7,44.9,0.409,734.8,2.1,1.050*
2018-08-14 01:06:00,1.935E-01,4C000000*,-702.3,957.320,90,35.8,45.2,0.408,734.5,2.1,1.050*
2018-08-14 01:07:00,1.188E-01,4C000000*,-701.9,957.724,89,35.8,45.0,0.409,734.8,2.1,1.050*
2018-08-14 01:08:00,1.319E-01,4C000000*,-702.6,957.320,89,35.8,45.0,0.409,734.8,2.1,1.050*
2018-08-14 01:09:00,4.393E-02,4C000000*,-702.3,957.320,91,35.8,45.3,0.409,734.2,2.1,1.050*
2018-08-14 01:10:00,2.080E-01,4C000000*,-702.6,957.320,90,35.8,44.9,0.409,734.5,2.1,1.050*
2018-08-14 01:11:00,1.986E-01,4C000000*,-703.0,957.724,89,35.8,45.0,0.409,735.1,2.1,1.050*
2018-08-14 01:12:00,8.552E-02,4C000000*,-702.3,956.915,89,35.8,45.1,0.409,734.8,2.1,1.050*
2018-08-14 01:13:00,2.233E-01,4C000000*,-702.3,957.724,90,35.8,45.0,0.409,734.5,2.1,1.050*
2018-08-14 01:14:00,1.717E-01,4C000000*,-702.3,957.724,89,35.7,45.2,0.409,734.5,2.1,1.050*
2018-08-14 01:15:00,1.592E-01,4C000000*,-702.3,958.128,90,35.7,45.0,0.409,734.5,2.1,1.050*
2018-08-14 01:16:00,6.736E-02,4C000000*,-702.3,956.915,91,35.8,45.0,0.409,734.8,2.1,1.050*
2018-08-14 01:17:00,1.579E-01,4C000000*,-702.3,957.724,90,35.8,45.2,0.409,734.8,2.1,1.050*
2018-08-14 01:18:00,1.127E-01,4C000000*,-702.6,957.724,90,35.7,44.9,0.409,734.5,2.1,1.050*
2018-08-14 01:19:00,1.037E-01,4C000000*,-702.6,956.107,89,35.8,45.1,0.409,734.8,2.1,1.050*
2018-08-14 01:20:00,1.120E-01,4C000000*,-702.3,958.937,91,35.8,45.1,0.409,734.5,2.1,1.050*
2018-08-14 01:21:00,1.650E-01,4C000000*,-702.6,957.724,91,35.7,44.8,0.409,734.2,2.1,1.050*
2018-08-14 01:22:00,4.753E-02,4C000000*,-702.6,957.320,90,35.8,45.3,0.409,734.5,2.1,1.050*
2018-08-14 01:23:00,5.139E-02,4C000000*,-702.6,958.128,89,35.8,45.1,0.408,734.2,2.1,1.050*
2018-08-14 01:24:00,6.503E-02,4C000000*,-702.3,957.320,91,35.8,44.9,0.409,734.5,2.1,1.050*
2018-08-14 01:25:00,4.745E-02,4C000000*,-702.3,958.128,89,35.8,45.2,0.409,734.8,2.1,1.050*
2018-08-14 01:26:00,7.319E-02,4C000000*,-702.3,958.128,90,35.8,45.0,0.409,734.2,2.1,1.050*
2018-08-14 01:27:00,1.732E-01,4C000000*,-702.3,958.128,91,35.8,45.0,0.409,734.5,2.1,1.050*
2018-08-14 01:28:00,5.970E-02,4C000000*,-702.6,957.724,90,35.8,45.2,0.409,734.5,2.1,1.050*
2018-08-14 01:29:00,1.646E-01,4C000000*,-702.3,958.128,90,35.8,44.9,0.409,734.2,2.1,1.050*
2018-08-14 01:30:00,6.036E-02,4C000000*,-702.3,958.128,90,35.8,45.1,0.409,734.8,2.1,1.050*
2018-08-14 01:31:00,7.990E-02,4C000000*,-702.6,958.532,91,35.8,45.1,0.408,734.5,2.1,1.050*
2018-08-14 01:32:00,-8.078E-03,4C000000*,-702.3,956.511,89,35.8,45.0,0.409,734.5,2.1,1.050*
2018-08-14 01:33:00,1.922E-01,4C000000*,-702.3,957.724,90,35.8,45.2,0.409,734.5,2.1,1.050*
2018-08-14 01:34:00,1.172E-02,4C000000*,-702.6,958.128,90,35.8,45.0,0.408,734.5,2.1,1.050*
2018-08-14 01:35:00,3.159E-02,4C000000*,-702.3,957.320,89,35.8,45.0,0.409,734.8,2.1,1.050*
2018-08-14 01:36:00,5.662E-02,4C000000*,-702.3,958.128,90,35.8,45.2,0.409,734.5,2.1,1.050*
2018-08-14 01:37:00,4.026E-02,4C000000*,-702.3,957.724,90,35.8,44.9,0.409,734.5,2.1,1.050*
2018-08-14 01:38:00,8.083E-03,4C000000*,-703.0,956.915,89,35.8,45.1,0.408,734.5,2.1,1.050*
2018-08-14 01:39:00,1.585E-02,4C000000*,-702.6,957.320,90,35.8,45.1,0.409,734.5,2.1,1.050*
2018-08-14 01:40:00,8.476E-03,4C000000*,-702.3,958.937,90,35.8,44.8,0.409,734.5,2.1,1.050*
2018-08-14 01:41:00,-4.398E-02,4C000000*,-702.3,957.320,90,35.8,45.3,0.409,734.5,2.1,1.050*
2018-08-14 01:42:00,-3.679E-03,4C000000*,-702.6,957.320,90,35.8,45.1,0.409,734.2,2.1,1.050*
2018-08-14 01:43:00,1.314E-02,4C000000*,-702.3,958.128,91,35.7,44.9,0.409,734.5,2.1,1.050*
2018-08-14 01:44:00,-6.895E-03,4C000000*,-702.3,958.128,89,35.8,45.2,0.408,734.2,2.1,1.050*
2018-08-14 01:45:00,-5.202E-02,4C000000*,-702.6,956.915,91,35.8,45.0,0.409,734.2,2.1,1.050*
2018-08-14 01:46:00,2.459E-02,4C000000*,-702.3,958.532,91,35.8,45.0,0.408,734.2,2.1,1.050*
2018-08-14 01:47:00,-7.867E-03,4C000000*,-702.3,956.915,90,35.8,45.3,0.409,734.2,2.1,1.050*
2018-08-14 01:48:00,-3.639E-03,4C000000*,-702.3,958.532,90,35.8,45.0,0.409,734.2,2.1,1.050*
2018-08-14 01:49:00,5.746E-03,4C000000*,-702.3,959.341,89,35.8,45.1,0.409,734.5,2.1,1.050*
2018-08-14 01:50:00,-4.518E-03,4C000000*,-702.3,958.128,90,35.8,45.1,0.408,733.9,2.1,1.050*
2018-08-14 01:51:00,9.294E-02,4C000000*,-702.3,958.937,90,35.8,44.9,0.408,734.5,2.1,1.050*
2018-08-14 01:52:00,7.537E-02,4C000000*,-702.3,957.320,91,35.8,45.2,0.409,734.2,2.1,1.050*
2018-08-14 01:53:00,4.548E-02,4C000000*,-702.3,958.532,91,35.8,45.2,0.409,734.2,2.1,1.050*
2018-08-14 01:54:00,2.194E-02,4C000000*,-702.3,959.341,88,35.8,44.9,0.409,734.5,2.1,1.050*
2018-08-14 01:55:00,-1.457E-02,4C000000*,-702.3,957.320,90,35.8,45.2,0.408,734.2,2.1,1.050*
2018-08-14 01:56:00,-2.103E-02,4C000000*,-702.6,958.128,91,35.8,44.9,0.408,733.9,2.1,1.050*
2018-08-14 01:57:00,-1.327E-02,4C000000*,-702.3,957.724,90,35.8,45.1,0.409,734.2,2.1,1.050*
2018-08-14 01:58:00,1.339E-02,4C000000*,-702.6,958.532,89,35.8,45.1,0.409,734.2,2.1,1.050*
2018-08-14 01:59:00,3.224E-03,4C000000*,-702.6,958.128,91,35.8,44.9,0.409,734.2,2.1,1.050*
2018-08-14 02:00:00,-8.730E-02,4C000000*,-702.3,957.320,91,35.8,45.3,0.409,734.2,2.1,1.050*
2018-08-14 02:01:00,-4.991E-03,4C000000*,-702.3,958.128,90,35.8,45.1,0.409,734.2,2.1,1.050*
2018-08-14 02:02:00,-2.709E-02,4C000000*,-702.3,956.107,89,35.8,44.9,0.409,734.2,2.1,1.050*
2018-08-14 02:03:00,2.823E-02,4C000000*,-702.3,958.128,90,35.8,45.2,0.408,734.2,2.1,1.050*
2018-08-14 02:04:00,-1.758E-02,4C000000*,-701.9,958.128,90,35.8,45.0,0.408,734.2,2.1,1.050*
2018-08-14 02:05:00,-1.442E-02,4C000000*,-702.6,958.128,90,35.8,45.0,0.408,734.5,2.1,1.050*
2018-08-14 02:06:00,4.773E-02,4C000000*,-702.3,957.724,89,35.9,45.2,0.409,734.2,2.1,1.050*
2018-08-14 02:07:00,1.198E-02,4C000000*,-702.6,957.320,90,35.9,45.0,0.409,733.9,2.1,1.050*
2018-08-14 02:08:00,-1.169E-02,4C000000*,-702.6,958.128,91,35.8,45.2,0.409,734.2,2.1,1.050*
2018-08-14 02:09:00,5.329E-02,4C000000*,-702.3,958.532,88,35.9,45.0,0.409,734.2,2.1,1.050*
2018-08-14 02:10:00,7.759E-03,4C000000*,-702.3,957.320,90,35.8,45.1,0.409,734.2,2.1,1.050*
2018-08-14 02:11:00,-2.182E-02,4C000000*,-702.6,957.724,88,35.9,45.1,0.408,734.2,2.1,1.050*
2018-08-14 02:12:00,6.060E-02,4C000000*,-702.3,958.128,92,35.9,44.8,0.409,734.2,2.1,1.050*
2018-08-14 02:13:00,-3.696E-02,4C000000*,-702.3,958.128,90,35.9,45.3,0.408,733.9,2.1,1.050*
2018-08-14 02:14:00,-5.868E-02,4C000000*,-702.3,957.724,90,35.9,45.1,0.408,734.2,2.1,1.050*
2018-08-14 02:15:00,-5.083E-02,4C000000*,-702.3,959.745,91,35.9,44.9,0.409,734.2,2.1,1.050*
2018-08-14 02:16:00,-1.800E-02,4C000000*,-702.3,957.724,89,35.9,45.2,0.409,734.2,2.1,1.050*
2018-08-14 02:17:00,-4.679E-03,4C000000*,-702.6,958.532,91,35.9,45.0,0.409,734.5,2.1,1.050*
2018-08-14 02:18:00,-1.943E-02,4C000000*,-702.3,958.937,90,35.9,45.2,0.409,734.5,2.1,1.050*
2018-08-14 02:19:00,2.732E-02,4C000000*,-702.6,958.128,90,35.8,45.1,0.408,734.2,2.1,1.050*
2018-08-14 02:20:00,-1.872E-02,4C000000*,-702.6,958.532,89,35.9,44.9,0.408,734.2,2.1,1.050*
2018-08-14 02:21:00,-1.346E-01,4C000000*,-702.6,958.532,90,35.9,45.2,0.408,734.2,2.1,1.050*
2018-08-14 02:22:00,2.643E-02,4C000000*,-702.6,957.724,90,35.9,45.0,0.408,734.2,2.1,1.050*
2018-08-14 02:23:00,1.695E-03,4C000000*,-702.6,958.937,89,35.9,44.9,0.409,734.5,2.1,1.050*
2018-08-14 02:24:00,-9.144E-02,4C000000*,-702.6,958.128,90,35.9,45.3,0.409,734.2,2.1,1.050*
2018-08-14 02:25:00,4.450E-03,4C000000*,-702.3,958.532,89,35.9,45.0,0.409,733.9,2.1,1.050*
2018-08-14 02:26:00,-6.572E-02,4C000000*,-702.3,957.724,90,35.9,45.1,0.408,734.2,2.1,1.050*
2018-08-14 02:27:00,-8.266E-02,4C000000*,-702.3,957.724,90,35.9,45.2,0.408,734.2,2.1,1.050*
2018-08-14 02:28:00,2.733E-02,4C000000*,-702.3,958.532,89,35.8,44.9,0.408,734.2,2.1,1.050*
2018-08-14 02:29:00,-1.355E-01,4C000000*,-702.3,958.532,90,35.9,45.1,0.409,734.5,2.1,1.050*
2018-08-14 02:30:00,-1.132E-01,4C000000*,-702.6,959.341,90,35.9,45.1,0.408,734.5,2.1,1.050*
2018-08-14 02:31:00,-1.265E-01,4C000000*,-702.3,958.128,90,35.9,44.8,0.409,734.5,2.1,1.050*
2018-08-14 02:32:00,4.503E-03,4C000000*,-702.3,958.532,90,36.0,45.3,0.408,733.9,2.1,1.050*
2018-08-14 02:33:00,-6.665E-02,4C000000*,-702.3,958.532,90,35.9,45.1,0.409,734.2,2.1,1.050*
2018-08-14 02:34:00,-4.285E-02,4C000000*,-702.6,958.937,91,35.9,44.9,0.409,734.2,2.1,1.050*
2018-08-14 02:35:00,-1.310E-01,4C000000*,-702.3,957.320,89,36.0,45.2,0.409,733.9,2.1,1.050*
2018-08-14 02:36:00,-6.835E-02,4C000000*,-702.3,958.532,91,36.0,45.0,0.409,734.2,2.1,1.050*
2018-08-14 02:37:00,-1.050E-01,4C000000*,-702.3,958.937,89,35.9,44.9,0.409,734.2,2.1,1.050*
2018-08-14 02:38:00,-5.680E-02,4C000000*,-702.6,958.532,90,35.9,45.3,0.409,733.9,2.1,1.050*
2018-08-14 02:39:00,-4.562E-02,4C000000*,-702.3,958.128,89,36.0,45.0,0.408,734.2,2.1,1.050*
2018-08-14 02:40:00,1.154E-02,4C000000*,-702.3,957.320,89,36.0,45.0,0.409,734.2,2.1,1.050*
2018-08-14 02:41:00,-6.017E-02,4C000000*,-702.6,958.532,90,36.0,45.1,0.409,734.2,2.1,1.050*
2018-08-14 02:42:00,-2.112E-02,4C000000*,-702.3,958.937,91,36.0,45.0,0.409,734.2,2.1,1.050*
2018-08-14 02:43:00,-4.767E-02,4C000000*,-702.6,958.532,90,36.0,45.2,0.408,734.2,2.1,1.050*
2018-08-14 02:44:00,-2.004E-02,4C000000*,-702.6,958.128,90,36.0,44.9,0.409,734.2,2.1,1.050*
2018-08-14 02:45:00,5.963E-02,4C000000*,-702.6,957.320,90,36.0,45.2,0.409,734.2,2.1,1.050*
2018-08-14 02:46:00,-4.370E-02,4C000000*,-702.6,957.724,90,35.9,45.0,0.408,734.2,2.1,1.050*
2018-08-14 02:47:00,-5.191E-03,4C000000*,-702.6,958.128,90,35.9,44.9,0.409,734.5,2.1,1.050*
2018-08-14 02:48:00,-2.475E-02,4C000000*,-702.6,957.724,91,36.0,45.3,0.409,734.5,2.1,1.050*
2018-08-14 02:49:00,-6.999E-02,4C000000*,-702.3,958.532,91,36.0,45.0,0.409,734.2,2.1,1.050*
2018-08-14 02:50:00,-3.332E-02,4C000000*,-702.6,957.724,90,36.0,45.0,0.408,734.5,2.1,1.050*
2018-08-14 02:51:00,-5.109E-04,4C000000*,-702.3,957.320,86,36.0,45.2,0.409,734.2,2.1,1.050*
2018-08-14 02:52:00,-8.229E-02,4C000000*,-702.6,957.724,90,36.0,44.9,0.409,733.9,2.1,1.050*
2018-08-14 02:53:00,-4.607E-02,4C000000*,-702.3,958.128,89,36.0,45.1,0.409,734.2,2.1,1.050*
2018-08-14 02:54:00,-8.044E-02,4C000000*,-702.6,958.532,90,36.0,45.1,0.409,734.5,2.1,1.050*
2018-08-14 02:55:00,-3.569E-02,4C000000*,-702.3,957.724,90,36.0,44.9,0.409,734.5,2.1,1.050*
2018-08-14 02:56:00,-5.068E-02,4C000000*,-702.6,958.128,90,36.0,45.2,0.409,734.2,2.1,1.050*
2018-08-14 02:57:00,-1.420E-02,4C000000*,-702.3,958.532,89,36.0,45.1,0.409,734.2,2.1,1.050*
2018-08-14 02:58:00,5.212E-02,4C000000*,-702.3,957.724,91,36.0,45.0,0.409,734.2,2.1,1.050*
2018-08-14 02:59:00,1.104E-02,4C000000*,-701.9,957.724,89,36.0,45.1,0.409,734.2,2.1,1.050*
2018-08-14 03:00:00,-2.641E-02,4C000000*,-702.6,959.745,89,36.0,44.9,0.409,734.2,2.1,1.050*
2018-08-14 03:01:00,-3.969E-02,4C000000*,-702.6,958.532,89,36.0,45.1,0.408,734.5,2.1,1.050*
2018-08-14 03:02:00,-6.568E-02,4C000000*,-702.3,958.937,88,36.0,45.1,0.408,734.2,2.1,1.050*
2018-08-14 03:03:00,-3.108E-02,4C000000*,-702.3,957.320,91,36.0,44.8,0.408,734.5,2.1,1.050*
2018-08-14 03:04:00,-9.987E-02,4C000000*,-702.3,958.532,90,36.0,45.3,0.409,734.2,2.1,1.050*
2018-08-14 03:05:00,-8.262E-02,4C000000*,-702.6,956.915,89,36.0,45.1,0.408,734.2,2.1,1.050*
2018-08-14 03:06:00,-2.950E-02,4C000000*,-702.6,958.937,90,36.1,45.0,0.409,734.2,2.1,1.050*
2018-08-14 03:07:00,-1.321E-02,4C000000*,-702.6,957.320,90,36.0,45.2,0.408,734.2,2.1,1.050*
2018-08-14 03:08:00,-6.596E-02,4C000000*,-702.6,957.320,90,36.0,45.0,0.409,734.2,2.1,1.050*
2018-08-14 03:09:00,5.847E-02,4C000000*,-701.9,958.128,90,36.0,45.0,0.409,734.2,2.1,1.050*
2018-08-14 03:10:00,2.243E-02,4C000000*,-701.9,958.532,90,36.1,45.2,0.409,734.5,2.1,1.050*
2018-08-14 03:11:00,-1.409E-02,4C000000*,-701.9,959.341,90,36.1,44.9,0.409,734.5,2.1,1.050*
2018-08-14 03:12:00,-2.507E-02,4C000000*,-702.6,957.724,91,36.1,45.2,0.409,734.2,2.1,1.050*
2018-08-14 03:13:00,-4.291E-04,4C000000*,-702.6,957.724,89,36.0,44.9,0.408,734.2,2.1,1.050*
2018-08-14 03:14:00,1.324E-01,4C000000*,-702.3,957.320,90,36.0,45.1,0.409,734.2,2.1,1.050*
2018-08-14 03:15:00,-1.762E-02,4C000000*,-702.3,958.532,90,36.0,45.2,0.408,734.2,2.1,1.050*
2018-08-14 03:16:00,6.248E-02,4C000000*,-702.3,958.532,91,36.1,44.9,0.408,734.5,2.1,1.050*
2018-08-14 03:17:00,-3.759E-03,4C000000*,-702.3,958.532,89,36.0,45.3,0.409,734.2,2.1,1.050*
2018-08-14 03:18:00,2.159E-03,4C000000*,-702.3,959.341,90,36.0,45.0,0.408,733.9,2.1,1.050*
2018-08-14 03:19:00,6.189E-02,4C000000*,-702.3,958.532,90,36.0,44.9,0.408,733.9,2.1,1.050*
2018-08-14 03:20:00,-8.621E-02,4C000000*,-702.6,958.532,90,36.1,45.2,0.408,734.2,2.1,1.050*
2018-08-14 03:21:00,-7.234E-02,4C000000*,-702.3,958.937,91,36.1,45.0,0.409,733.9,2.1,1.050*
2018-08-14 03:22:00,-1.351E-02,4C000000*,-702.3,958.128,90,36.1,45.0,0.408,734.2,2.1,1.050*
2018-08-14 03:23:00,-1.486E-02,4C000000*,-702.3,958.532,90,36.1,45.2,0.409,733.9,2.1,1.050*
2018-08-14 03:24:00,1.529E-02,4C000000*,-702.6,957.724,91,36.1,45.0,0.408,734.2,2.1,1.050*
2018-08-14 03:25:00,1.265E-02,4C000000*,-702.6,958.532,90,36.1,45.2,0.409,734.2,2.1,1.050*
2018-08-14 03:26:00,4.820E-02,4C000000*,-702.3,957.320,90,36.1,45.0,0.409,734.2,2.1,1.050*
2018-08-14 03:27:00,-1.078E-01,4C000000*,-702.3,956.915,90,36.1,44.9,0.409,734.2,2.1,1.050*
2018-08-14 03:28:00,-6.423E-02,4C000000*,-702.3,958.532,90,36.2,45.3,0.408,733.9,2.1,1.050*
2018-08-14 03:29:00,4.801E-02,4C000000*,-702.6,957.724,89,36.1,45.0,0.409,733.9,2.1,1.050*
2018-08-14 03:30:00,8.249E-03,4C000000*,-702.3,957.724,90,36.1,45.1,0.408,733.9,2.1,1.050*
2018-08-14 03:31:00,-3.482E-03,4C000000*,-702.3,958.532,90,36.1,45.1,0.408,733.9,2.1,1.050*
2018-08-14 03:32:00,-7.185E-02,4C000000*,-702.6,956.915,90,36.2,44.9,0.409,733.9,2.1,1.050*
2018-08-14 03:33:00,1.411E-01,4C000000*,-702.3,958.532,90,36.1,45.2,0.409,733.9,2.1,1.050*
2018-08-14 03:34:00,4.013E-02,4C000000*,-702.3,958.128,91,36.2,45.1,0.409,734.2,2.1,1.050*
2018-08-14 03:35:00,2.695E-02,4C000000*,-702.3,958.128,90,36.1,44.9,0.408,733.9,2.1,1.050*
2018-08-14 03:36:00,2.675E-02,4C000000*,-702.6,958.128,90,36.2,45.3,0.409,733.9,2.1,1.050*
2018-08-14 03:37:00,-7.171E-02,4C000000*,-702.6,958.937,89,36.2,45.1,0.409,734.2,2.1,1.050*
2018-08-14 03:38:00,5.349E-02,4C000000*,-702.3,958.532,90,36.2,44.9,0.409,733.9,2.1,1.050*
2018-08-14 03:39:00,-1.387E-01,4C000000*,-702.3,957.320,91,36.2,45.2,0.408,734.2,2.1,1.050*
2018-08-14 03:40:00,1.350E-01,4C000000*,-702.6,957.724,91,36.2,45.1,0.409,734.2,2.1,1.050*
2018-08-14 03:41:00,2.954E-02,4C000000*,-701.9,958.532,89,36.1,45.0,0.408,734.2,2.1,1.050*
2018-08-14 03:42:00,9.052E-02,4C000000*,-702.3,958.128,90,36.1,45.3,0.408,734.2,2.1,1.050*
2018-08-14 03:43:00,-2.436E-02,4C000000*,-702.3,958.532,88,36.1,44.9,0.408,734.2,2.1,1.050*
2018-08-14 03:44:00,-2.609E-02,4C000000*,-702.6,959.341,90,36.1,45.0,0.409,733.9,2.1,1.050*
2018-08-14 03:45:00,7.014E-02,4C000000*,-702.6,957.724,89,36.2,45.1,0.408,733.9,2.1,1.050*
2018-08-14 03:46:00,1.006E-01,4C000000*,-702.6,958.937,90,36.2,44.9,0.408,734.2,2.1,1.050*
2018-08-14 03:47:00,5.111E-02,4C000000*,-702.3,958.128,89,36.2,45.3,0.408,733.9,2.1,1.050*
2018-08-14 03:48:00,1.176E-02,4C000000*,-701.9,958.532,90,36.2,45.2,0.409,733.9,2.1,1.050*
2018-08-14 03:49:00,-9.067E-02,4C000000*,-702.3,957.724,90,36.2,44.9,0.409,733.9,2.1,1.050*
2018-08-14 03:50:00,3.953E-02,4C000000*,-702.6,958.128,90,36.2,45.2,0.409,734.2,2.1,1.050*
2018-08-14 03:51:00,4.396E-02,4C000000*,-701.9,958.532,89,36.2,45.0,0.409,734.2,2.1,1.050*
2018-08-14 03:52:00,2.827E-02,4C000000*,-702.3,959.745,91,36.2,44.9,0.409,734.2,2.1,1.050*
2018-08-14 03:53:00,-5.787E-02,4C000000*,-701.9,958.128,90,36.2,45.2,0.408,734.2,2.1,1.050*
2018-08-14 03:54:00,-5.642E-02,4C000000*,-702.3,958.532,89,36.2,45.0,0.408,733.9,2.1,1.050*
2018-08-14 03:55:00,-1.172E-02,4C000000*,-702.6,958.937,89,36.2,45.1,0.409,734.2,2.1,1.050*
2018-08-14 03:56:00,-1.398E-02,4C000000*,-702.3,958.128,91,36.2,45.2,0.409,733.9,2.1,1.050*
2018-08-14 03:57:00,-4.259E-02,4C000000*,-702.6,958.128,91,36.2,45.0,0.408,733.9,2.1,1.050*
2018-08-14 03:58:00,4.732E-02,4C000000*,-702.3,958.532,90,36.2,45.1,0.409,733.9,2.1,1.050*
2018-08-14 03:59:00,-9.481E-03,4C000000*,-702.6,958.937,90,36.3,45.1,0.409,733.9,2.1,1.050*
2018-08-14 04:00:00,3.663E-02,4C000000*,-702.6,958.128,90,36.3,44.9,0.408,734.2,2.1,1.050*
2018-08-14 04:01:00,4.356E-02,4C000000*,-702.6,958.937,90,36.2,45.3,0.408,733.9,2.1,1.050*
2018-08-14 04:02:00,-9.517E-03,4C000000*,-702.3,958.532,90,36.2,45.1,0.409,733.9,2.1,1.050*
2018-08-14 04:03:00,5.151E-02,4C000000*,-702.6,958.532,91,36.2,44.9,0.409,734.2,2.1,1.050*
2018-08-14 04:04:00,2.290E-02,4C000000*,-702.6,958.128,89,36.2,45.2,0.409,734.2,2.1,1.050*
2018-08-14 04:05:00,-8.055E-02,4C000000*,-702.6,958.532,89,36.3,45.0,0.409,733.9,2.1,1.050*
2018-08-14 04:06:00,2.048E-02,4C000000*,-702.3,958.128,91,36.2,45.0,0.409,734.2,2.1,1.050*
2018-08-14 04:07:00,6.095E-02,4C000000*,-702.3,957.724,89,36.3,45.3,0.409,734.2,2.1,1.050*
2018-08-14 04:08:00,-1.614E-02,4C000000*,-702.3,958.128,89,36.2,45.0,0.409,734.2,2.1,1.050*
2018-08-14 04:09:00,-1.228E-01,4C000000*,-702.3,958.532,90,36.2,45.1,0.409,734.5,2.1,1.050*
2018-08-14 04:10:00,-2.603E-02,4C000000*,-702.3,958.937,89,36.3,45.1,0.409,733.9,2.1,1.050*
2018-08-14 04:11:00,-2.446E-02,4C000000*,-702.6,959.341,91,36.3,45.0,0.408,734.2,2.1,1.050*
2018-08-14 04:12:00,-5.022E-02,4C000000*,-702.6,957.724,89,36.3,45.2,0.408,733.9,2.1,1.050*
2018-08-14 04:13:00,-5.272E-02,4C000000*,-702.6,957.320,91,36.3,45.0,0.408,733.9,2.1,1.050*
2018-08-14 04:14:00,-4.788E-02,4C000000*,-702.6,957.320,89,36.3,45.0,0.408,733.9,2.1,1.050*
2018-08-14 04:15:00,6.592E-02,4C000000*,-702.3,958.128,88,36.3,45.2,0.408,733.6,2.1,1.050*
2018-08-14 04:16:00,-3.578E-02,4C000000*,-702.3,957.724,91,36.3,44.9,0.409,733.9,2.1,1.050*